Skip to content

GuitarMania

(*.234.198.163) 조회 수 25638 댓글 6
서버이동때문에 0바이트로 되어 있네요
그래서 다시 올립니다.^^행복한 하루 되시길... ...
Comment '6'
  • 채소칸 2007.06.17 15:48 (*.239.102.24)
    오늘에야 들어봤는데....너무좋네요....근데 작곡자가 누구죠??
  • 채소칸 2007.06.17 16:01 (*.239.102.24)
    아....클레냥 작곡인것 같군요...
  • 아이모레스 2007.06.18 05:39 (*.158.96.220)
    클렌장의 곡들은 곡들마다 어쩜 그리들 달콤한지요... 다작인데도 버릴 게 정말 하나도 없는 것 같아요^^
    맘에 맞는 이중주 파트너가 있다는 거 참 행복한 일인 것 같아요!!!! 전 평생 그게 젤 부럽드라구요~~~^^
    좋은 연주... 감사합니다!!!
  • 우체국가는길 2007.06.18 13:48 (*.234.198.163)
    저같은 경우 1.2.3번중에 3번이 좀 더 까다로운 곡이라고 생각합니다.
    개인적으로 1번보다 3번에 더 마음이 가더라구요.
    1번은 워낙 유명한 곡인지라.. ...그래도 요즘엔 1번 연습중에 있는데 잘 될지 모르겠어요.^^
  • 지초이 2007.06.18 15:42 (*.106.193.62)
    아름답게 들립니다. 1번도 버벅치는데...더어려우면...어쩐다!
  • 샤론 2007.06.20 09:13 (*.80.210.88)
    즐감했습니다..저도 우체국 가는걸 좋아했던 사람이었어요
    누구에게 사랑을 전할수만 있다면요
?

List of Articles
번호 제목 글쓴이 날짜 조회 수
1836 Love Affair 6 2007.06.02 19044
1835 zapateado///rodrigo 13 김은미 2007.06.03 23970
1834 최후의 트레몰로 (리버브효과없는겁니다..;;) 4 file JoDaC 2007.06.09 19143
1833 최후의 트레몰로 입니다 ^^ 32 file JoDaC 2007.06.06 23341
1832 전설 11 file 최병욱 2007.06.06 23253
1831 I believe 13 file orpheus15 2007.06.08 19182
1830 Romance.3번. 10 file 우체국가는길 2007.06.08 23809
1829 Kiss the Rain 이루마 곡 (기타 연주) 44 file 아이모레스 2007.06.12 26617
1828 오 솔레미오 4 file 밀롱가. 2007.06.14 21098
1827 Recuerdos de la Alhambra -F. Tarrega 12 file Jason 2007.06.15 23503
1826 알함브라 다시녹음했습니다~ 14 file 최병욱 2007.06.16 21583
1825 [re] 소르 연습곡 6번-리버브를 넣어보았습니다. 1 file niceplace 2007.06.20 21661
1824 소르 연습곡 6번 8 file niceplace 2007.06.17 21722
» Romance.3번. 다시 올려요 6 file 우체국가는길 2007.06.17 25638
1822 뱃노래 - 코스트 12 file fernando 2007.06.19 22306
1821 유키구라모토의 Meditation 18 file 최병욱 2007.06.19 23596
1820 fredric hand의 연습곡 1번 4 file 루하기 2007.06.21 15662
1819 리브라소나티네 3.Fuoco-롤랑디용 27 file MSGr 2007.06.21 28251
1818 바흐 샤콘느 10 file 좁은길로 2007.06.26 23050
1817 쉘부르의 우산 3 file nice guy 2007.06.27 22412
1816 Koyunbaba - C. Domeniconi 25 file 진느 2007.06.27 19721
1815 F. Tarrega,Capricho Arabe 33 file Jason 2007.06.28 22575
1814 Agua e Vinho - Egberto Gismonti 18 file limnz 2007.06.29 21896
1813 BWV1006a 프렐류드 3 file 좁은길로 2007.06.29 21635
1812 이노래어떤가요? Pulo do Gato(P.Bellinati) 15 file MSGr 2007.07.01 26343
1811 L'HYMNE A L'AMOUR / E.PIAF 24 file April 2007.07.04 20777
1810 Kleine Romanze- L. Walker 10 file Jason 2007.07.05 20439
1809 Triste Santuario by Vincent Gomez-슬픈 예배당 17 file Jason 2007.07.05 24301
1808 대성당1악장 8 file 좁은길로 2007.07.05 19982
1807 이루마의 When the love falls 7 file 최병욱 2007.07.07 43343
1806 종소리 12 file 좁은길로 2007.07.07 23296
1805 소르의 마적입니다... 19 file 화가 2007.07.08 27632
1804 brahms-theme and variations 20 file 기타레타 2007.07.09 29574
1803 [영상] 엘레지 Elegie (메르츠 Mertz) 3 2007.07.09 22500
1802 이병우 - 달려 18 file 김상욱 2007.07.09 21855
1801 대성당2악장 4 file 좁은길로 2007.07.09 31231
1800 도적의 노래-ibach 연주 16 file 바하의꿈 2007.07.10 22770
1799 하프시 팟사 완주--! 4 file 좁은길로 2007.07.10 21060
1798 핑거스타일- Sun dance (Kotaro Oshio) 7 file 최병욱 2007.07.11 24933
1797 Giuliani-- Rossiniana No.1 (글로빌 아트홀 실황연주) 15 file LDH 2007.07.11 18525
1796 엔커리지먼트-소르 39 file 기타레타 2007.07.11 22659
1795 이 곡 제목이 뭔가요? 3 file -_ - 2007.07.12 18932
1794 헨델의 아리아 23 file 아이모레스 2007.07.12 22558
1793 G선상의 아리아 - J.S.BACH 43 file 기타레타 2007.07.13 23245
1792 이루마의 Kiss the Rain 6 file 최병욱 2007.07.13 22957
1791 Pierre Bensusan - 아도니스의 정원 12 file 찬찬 2007.07.14 24134
1790 Bach - BWV1007 Prelude & Allemande 16 file 김상욱 2007.07.14 21980
1789 Wonderful tonight 43 file - 情 - 2007.07.14 25061
1788 Variation on Theme of Mozart - F.Sor 32 file Jason 2007.07.15 22988
1787 월량대표아적심(月亮代表我的心) 29 이진성 2007.07.19 25204
1786 Fantasia Arabe by Sabicas 22 file Jason 2007.07.22 18857
1785 샤콘느 뒤에뒤부분 7 file 좁은길로 2007.07.23 19579
1784 유키 구라모토의 Lake Louise(새로운 편곡) 17 file 최병욱 2007.07.23 22780
1783 Aria no.1 - F. Kleynjans 11 file bradpitt 2007.07.24 22681
1782 Septiembre (Maximo Diego Pujol) 21 file 라일 2007.07.26 21377
1781 (이중주) Green Sleeves 20 file niceplace 2007.07.27 24174
1780 BWV1006a Prelude 7 file 좁은길로 2007.07.27 25031
1779 A. Piazzolla Quattro Stagioni (부에노스아이레스의 사계) 1. Primavera portend (봄) 8 file sgq 2007.07.27 22591
1778 A. Piazzolla Oblivion(망각) 3 file sgq 2007.07.27 22389
1777 A. Piazzolla Liebertango 1 file sgq 2007.07.27 23312
1776 P. Bellinati Baiao de Gude 서울기타콰르텟 4 file sgq 2007.07.27 23218
1775 사람이 꽃보다 아름다워~~~ 4 야매 2007.07.28 23289
1774 Fur Elise by L. Van Beethoven 62 file Jason 2007.07.28 26640
1773 부탁 김효석 2007.07.29 18599
1772 클레이앙스-로망스1번(이중주) 6 file 기타레타 2007.07.30 19120
1771 Lamento No.2 / F. Kleynjans 12 file 이진성 2007.08.01 20526
1770 The old rugged cross by G. Bennard 10 file Jason 2007.08.02 21961
1769 로망스 no.1(이중주)-끌레앙 16 file 체르니 2007.08.04 31745
1768 Sleeprs, Awake! 눈뜨라부르는소리있어 7 file 좁은길로 2007.08.05 19999
1767 Estudio No.12 / F. Sor 13 file 이진성 2007.08.06 22461
1766 Partners in Praise / 안신영님 편곡 10 file orpheus15 2007.08.07 19515
1765 알베니즈-야자나무 아래에서 13 file 기타레타 2007.08.08 28561
1764 로드리고 // 고풍스런 티엔토 30 file 진느 2007.08.08 25150
1763 Sor Etude#6 10 file 밀롱가. 2007.08.10 20327
1762 Classical Gas/Mason Williams -클래식컬 개스 23 file Jason 2007.08.10 22678
1761 Adelita 2 file sky600 2007.08.12 14790
1760 maria luisa 6 file sky600 2007.08.12 23580
1759 sunflower 14 file 한사랑 2007.08.13 21054
1758 Tango En Skai 11 file 좁은길로 2007.08.13 23908
1757 바흐 // Choral from cantata147 arr.David Russell 31 file 진느 2007.08.14 20418
1756 milonga 6 file 2007.08.15 21602
1755 [동영상] Barrios - Una Limosna por el amor de Dios (최후의 트레몰로) 39 file 김상욱 2007.08.17 27497
1754 텅 빈 놀이터 II by devilous 9 file devilous 2007.08.20 20199
1753 Sleepers, Awake! from Cantata BWV140 9 file April 2007.08.20 20084
1752 Yuichi Watanabe - Morning Dew 5 file 2007.08.21 23196
1751 Falla--ThreeCorneredHat(KimMoonHyung & Chung Sehee) 7 file 바하의꿈 2007.08.21 24678
1750 망고레의 Contemplacion (깊은 그리움) 24 file 아이모레스 2007.08.22 21974
1749 헨델의 대장간변주?^^ Handel--Blacksmith Variations 19 file 바하의꿈 2007.08.23 23613
1748 F. Sor의 인커리지먼트 18 file 바하의꿈 2007.08.24 24691
1747 알함브라궁전의 추억 12 file 정면 2007.08.24 21401
1746 죄송한! 탕고 안 스까이 바이 로랑디앙 (조율 맞춰 재업)ㅠ 8 file buyho 2007.08.26 16681
1745 Stairway to Heaven, Classical/Unplugged version 기악 독주 7 file 2007.08.28 25161
1744 Les Feuilles Mortes (고엽) - Joseph Kosma 20 file 고정석 2007.08.29 21381
1743 Beautiful Dreamer(토스토) 7 file 까치 2007.08.30 23066
1742 줄리아니 기타협주곡 5 file buyho 2007.09.04 20463
1741 가을편지 / 안형수 편곡 15 file orpheus15 2007.09.04 22611
1740 녹음은 어떻게 하나요? 2 소르초이 2007.09.05 19614
1739 TOmmy Emmanuel-Angelina 10 file 좁은길로 2007.09.05 19030
1738 내마음의 보석상자(동영상) 7 야매 2007.09.07 24361
1737 Venus(동영상) 4 야매 2007.09.07 27052
Board Pagination ‹ Prev 1 ... 11 12 13 14 15 16 17 18 19 20 21 22 23 24 25 26 27 28 29 30 ... 39 Next ›
/ 39

나눔글꼴 설치 안내


이 PC에는 나눔글꼴이 설치되어 있지 않습니다.

이 사이트를 나눔글꼴로 보기 위해서는
나눔글꼴을 설치해야 합니다.

설치 취소

Designed by sketchbooks.co.kr / sketchbook5 board skin

Sketchbook5, 스케치북5

Sketchbook5, 스케치북5

Sketchbook5, 스케치북5

Sketchbook5, 스케치북5

Powered by Xpress Engine / Designed by hikaru100

abcXYZ, 세종대왕,1234

abcXYZ, 세종대왕,1234